Miscellaneous Local Product
Issued by NWS North Platte, NE

Home | Current Version | Previous Version | Text Only | Print | Product List | Glossary On
Versions: 1 2 3 4 5 6 7 8 9 10 11 12 13 14 15 16 17 18 19 20 21 22 23 24 25 26 27 28 29 30 31 32 33 34 35 36 37 38 39 40 41 42 43 44 45 46 47 48 49 50
000
AXUS43 KLBF 310910
MISLBF


WESTERN AND NORTH CENTRAL NEBRASKA HOURLY WEATHER ROUNDUP
NATIONAL WEATHER SERVICE NORTH PLATTE NE
400 AM CDT FRI OCT 31 2014

***STATIONS NOT REPORTING VARIABLES SUCH AS SKY/WEATHER OR
PRESSURE ARE PROVIDED BY THE NEBRASKA DEPARTMENT OF
ROADS...RAWS...AND APRS NETWORKS...AND ARE NOT UNDER
NATIONAL WEATHER SERVICE QUALITY CONTROL***

...OBSERVATIONS IN AND NEAR THE EASTERN PANHANDLE OF NEBRASKA...

CITY           SKY/WX    TMP DP  RH WIND       PRES   REMARKS
PINE RIDGE     CLOUDY    29  28  96 SE7       30.47F WCI  22
CHADRON        FOG       23  21  92 CALM      30.45F VSB 1/4
ALLIANCE       CLEAR     24  21  88 E3        30.44S
SIDNEY         CLEAR     26  24  92 SE6       30.44F WCI  19
WHITECLAY        N/A     28  26  92 SE10        N/A  WCI  19
RUSHVILLE        N/A     23  22  99 SE15        N/A  WCI  10
CRESCENT LAKE    N/A     29  28  94 E3          N/A
LISCO            N/A     29  25  86 CALM        N/A
LEWELLEN         N/A     24  22  93 S3          N/A
$$

...OBSERVATIONS IN NORTH CENTRAL NEBRASKA...

CITY           SKY/WX    TMP DP  RH WIND       PRES   REMARKS
VALENTINE      CLOUDY    30  25  81 NE8       30.53S WCI  22
THEDFORD       CLOUDY    32  30  93 NE9       30.51S WCI  24
AINSWORTH      CLOUDY    28  23  81 N8        30.53R WCI  20
O`NEILL        PTCLDY    28  23  82 N5        30.54R WCI  22
ORD            CLOUDY    31  24  75 NE9       30.52R WCI  23
BROKEN BOW     CLOUDY    33  27  78 N12       30.50R WCI  24
SPRINGVIEW       N/A     28  21  74 NE7         N/A  WCI  21
ROSE             N/A     33  30  87 N7          N/A  WCI  27
NEWPORT          N/A     30  27  86 NE5         N/A  WCI  25
SARGENT          N/A     31  25  79 NE6G16      N/A  WCI  25
COMSTOCK         N/A     36  30  78 NE7         N/A  WCI  30
CHAMBERS         N/A     30  21  68 N7          N/A  WCI  23
$$

...OBSERVATIONS IN SOUTHWEST NEBRASKA AND FAR NORTHEAST COLORADO...

CITY           SKY/WX    TMP DP  RH WIND       PRES   REMARKS
WRAY           FAIR      32  29  88 E3        30.46R
HOLYOKE        FAIR      30  27  86 E6        30.45F WCI  24
IMPERIAL       CLEAR     26  22  84 CALM      30.48S
OGALLALA       CLEAR     28  26  94 CALM      30.48S
NORTH PLATTE   CLOUDY    32  30  92 NE9       30.49S WCI  24
MCCOOK         CLEAR     29  26  89 N7        30.49R WCI  22
LEXINGTON      CLOUDY    34  30  86 N12G17    30.51R WCI  25
PAXTON           N/A     30  27  88 NE3         N/A
SUTHERLAND       N/A     25  23  91 E9          N/A  WCI  16
BRADY            N/A     31  28  86 NW3         N/A
GOTHENBURG       N/A     33  29  85 N7          N/A  WCI  27
CALLAWAY         N/A     31  29  91 NE9         N/A  WCI  23
$$

...SOME WEATHER OBSERVATIONS FROM AROUND THE REGION...

CITY           SKY/WX    TMP DP  RH WIND       PRES   REMARKS
DENVER         PTCLDY    36  26  67 SE7       30.37F WCI  30
LARAMIE        CLEAR     36  24  62 SE22      30.32F WCI  25
CHEYENNE       PTCLDY    35  28  75 S13       30.38F WCI  26
SCOTTSBLUFF    CLEAR     32  30  92 E9        30.43S WCI  24
RAPID CITY     FOG       30  29  96 SE12      30.46F VSB 1   WCI  20
PIERRE         PTCLDY    19  15  84 CALM      30.57S
WINNER         FAIR      23  18  81 CALM      30.56S
SIOUX FALLS    CLEAR     23  18  81 N7        30.52R WCI  15
OMAHA          PTCLDY    33  22  63 N14       30.48R WCI  23
GRAND ISLAND   CLOUDY    36  27  69 N16G22    30.50R WCI  26
KANSAS CITY    CLOUDY    45  37  73 N24G30    30.31R
WICHITA        PTCLDY    45  37  73 N15G25    30.35R
HAYS           CLEAR     37  28  70 N9        30.45R WCI  31
LIBERAL        CLEAR     43  30  61 NE8       30.43S
GOODLAND       CLEAR     30  27  88 CALM      30.47R
$$



USA.gov is the U.S. government's official web portal to all federal, state and local government web resources and services.